User: anonymous   Login
Location: NJAA Observatory
(40.6819°N, 74.8979°W)
Time: 03:53:01
(UTC-05:00)
Language:

Landsat 5 - Orbit

View from above orbital plane
View from above orbital plane
View from above satellite
View from above satellite

Ground track
Ground track

The orbit data is extracted from the following two-line orbital elements,

1 14780U 84021A   15061.43581590  .00002676  00000-0  26176-3 0  9999
2 14780 098.0335 148.0444 0094703 046.3803 084.1741 14.89897700651057
Epoch (UTC): 02 March 2015 10:27:34
Eccentricity: 0.0094703
inclination: 98.0335°
perigee height: 532 km
apogee height: 664 km
right ascension of ascending node: 148.0444°
argument of perigee: 46.3803°
revolutions per day: 14.89897700
mean anomaly at epoch: 84.1741°
orbit number at epoch: 65105

The dashed part of the orbit path shows where the satellite is in the earth's shadow,  

DLR